Regional Weather Roundup
Issued by NWS

Home | Current Version | Previous Version | Text Only | Print | Product List | Glossary On
Versions: 1 2 3 4 5 6 7 8 9 10 11 12 13 14 15 16 17 18 19 20 21 22 23 24 25 26 27 28 29 30 31 32 33 34 35 36 37 38 39 40 41 42 43 44 45 46 47 48 49 50
203
ASHW40 PHFO 241232
RWRHI

WEATHER ROUNDUP FOR HAWAII
NATIONAL WEATHER SERVICE HONOLULU HI
200 AM HST TUE JAN 24 2017

THIS IS AN AUTOMATED REPORT THAT HAS NOT BEEN QUALITY CONTROLLED.

NOTE..."FAIR" INDICATES FEW OR NO CLOUDS BELOW 12,000 FEET WITH NO
SIGNIFICANT WEATHER AND/OR OBSTRUCTIONS TO VISIBILITY.

* - THESE SITES REPORT LIMITED FIELDS

HIZ001>004-241300-
KAUAI-NIIHAU-

CITY           SKY/WX    TMP DP  RH WIND       PRES   REMARKS
LIHUE APT      MOCLDY    73  68  84 E15       30.12F
PORT ALLEN*      N/A     70 N/A N/A N7          N/A
POIPU*           N/A     73 N/A N/A E7G15       N/A
PRINCEVILLE*     N/A     70 N/A N/A S2          N/A
KOKOLE POINT*  NOT AVBL
MOLOAA DAIRY*    N/A     70  66  88 SE5G13      N/A
WAIMEA HTS*    NOT AVBL
PUU OPAE*      NOT AVBL
PUU LUA*       NOT AVBL
MAKAHA RIDGE*    N/A     64  59  82 CALM        N/A
$$

HIZ005>011-241300-
OAHU-

CITY           SKY/WX    TMP DP  RH WIND       PRES   REMARKS
HONOLULU       PTCLDY    71  65  81 N7        30.12S
KALAELOA       CLEAR     71  64  78 NE3       30.13F
KANEOHE MCB    NOT AVBL
WHEELER FIELD  MOCLDY    68  67  98 CALM      30.13S
BELLOWS*         N/A    N/A N/A N/A E14         N/A
KAHUKU*          N/A    N/A N/A N/A NE9G21      N/A
WHEELER*       NOT AVBL
WAIANAE HARBOR NOT AVBL
DILLINGHAM*      N/A     82  79  89 MISG        N/A  HX  93
KAHUKU TRN*      N/A     70  64  83 NW6G18      N/A
KAWAILOA*        N/A     66  66 100 S1          N/A
KII*             N/A     73  68  83 E16         N/A
MAKUA RANGE*     N/A     72  68  88 NW3         N/A
OAHU FOREST NW NOT AVBL
SCHOFIELD BRK*   N/A     66  66 100 MISG        N/A
SCHOFIELD S*   NOT AVBL
WAIANAE VLY*   NOT AVBL
KUAOKALA*      NOT AVBL
HONOULIUULI*   NOT AVBL
MOKUOLOE IS*   NOT AVBL
PALEHUA*       NOT AVBL
WAIAWA PHB*    NOT AVBL
$$

HIZ012>013-241300-
MOLOKAI-

CITY           SKY/WX    TMP DP  RH WIND       PRES   REMARKS
MOLOKAI AIRPT  CLEAR     63  62  97 N3        30.12F
KALAUPAPA      NOT AVBL
MAKAPULAPAI*     N/A     72  68  88 E13G24      N/A
MOLOKAI 1*     NOT AVBL
PUU ALII*        N/A     57  57 100 NE2G8       N/A
$$

HIZ016-241300-
KAHOOLAWE-

CITY           SKY/WX    TMP DP  RH WIND       PRES   REMARKS
KAHOOLAWE*     NOT AVBL
HAKIOAWA*        N/A     69  66  90 MISG      30.51F
HONOKANAIA*      N/A     72  65  78 NE12G23   30.05F
KANELOA*         N/A     70  66  88 E18G26    30.17F
KEALIALALO*    NOT AVBL
LUA MAKIKA*    NOT AVBL
$$

HIZ014>015-241300-
LANAI-

CITY           SKY/WX    TMP DP  RH WIND       PRES   REMARKS
LANAI CITY     NOT AVBL
LANAI 1*       NOT AVBL
$$

HIZ017>028-241300-
MAUI-

CITY           SKY/WX    TMP DP  RH WIND       PRES   REMARKS
KAHULUI        PTCLDY    65  62  90 S3        30.11F
KAPALUA-W MAUI NOT AVBL
HANA AIRPORT   CLOUDY    72  68  88 SE3       30.14F FOG
HANA*            N/A     73 N/A N/A E7G14       N/A
HALEAKALA SUMM   N/A     39  23  52 NW6         N/A
MAALAEA BAY*     N/A     64 N/A N/A NE3         N/A
HALEAKALA*     NOT AVBL
KAUPO GAP*     NOT AVBL
KULA 1*          N/A    N/A N/A N/A E6          N/A
$$

HIZ023>026-241300-
BIG ISLAND OF HAWAII COAST AND LOWER SLOPES-

CITY           SKY/WX    TMP DP  RH WIND       PRES   REMARKS
KAILUA KONA    CLEAR     71  65  81 N10       30.06F
HILO           LGT RAIN  70  68  94 CALM      30.10F FOG
HONOKAA*         N/A     66 N/A N/A VRB1        N/A
KAWAIHAE MWT*  NOT AVBL
KAWAIHAE*        N/A     72 N/A N/A NE7       30.08F
SOUTH POINT*     N/A     66 N/A N/A N15         N/A
UPOLU AIRPORT* NOT AVBL
KAMUELA*       PTSUNNY   57  55  94 E7        30.18F
HAKALAU*         N/A     48  46  93 S3G12       N/A
KALOKO-HONOKO*   N/A     66  57  72 NE2       30.05F
PALI 2*          N/A     61  59  94 SW3         N/A
KEALAKOMO*       N/A     72  68  88 N6G13       N/A
KAUPULEHU*     NOT AVBL
KAPAPALA*      NOT AVBL
LOWER KAHUKU*    N/A     57  57 100 N2          N/A
PUHE CS*         N/A     70  57  64 NE3         N/A
PUHO CS*         N/A     66  56  69 E2          N/A
PTA KEAMUKU*     N/A     59  55  88 CALM        N/A
WAIKOLOA*      NOT AVBL
$$

HIZ027>028-241300-
BIG ISLAND OF HAWAII INTERIOR AND SUMMMITS-

CITY           SKY/WX    TMP DP  RH WIND       PRES   REMARKS
BRADSHAW FIELD CLOUDY    56  44  65 CALM      30.37F
MK VISITOR CEN   N/A     41  36  81 NE2         N/A
MAUNA KEA*       N/A     27  25  93 CALM        N/A
MAUNA LOA*       N/A    N/A N/A N/A MISG        N/A
MAUNA LOA 1*   NOT AVBL
PTA KIPUKA*      N/A     68  68 100 S1          N/A
PTA RANGE 17*    N/A     50  45  81 SE3         N/A
PTA WEST*        N/A     52  50  93 SE8         N/A
NENE CABIN*      N/A     46  41  81 N3          N/A
AHUMOA*        NOT AVBL
PTA PORTABLE*  NOT AVBL
PUU MALI*        N/A     50 N/A N/A SE3         N/A
$$

HIC003-241300-
NORTHWEST ISLANDS-

CITY           SKY/WX    TMP DP  RH WIND       PRES   REMARKS
MIDWAY ISLAND  MOCLDY    72  70  94 S9        30.13F
MIDWAY NOS*      N/A     72 N/A N/A MISG      30.11S
FRENCH FRIGATE NOT AVBL
$$

PHZ110>124-180-241300-
BUOY REPORTS

STATION/POSITION TIME  TEMP    WIND        PRES    WAVE   SWELL
                       AIR SEA DIR/SP/G            HT/PER HT/DIR
                 (UTC) (F)     (DEG/KT/KT) (MB)    (FT/S) (FT/D)
BUOY 51001       1210   72 73   80/ 10/ 12 1021.5
BUOY 51101       1150   72 75   70/ 12/ 14 1022.2F   9/ 9   8/110
BUOY 51100       NOT AVBL
BUOY 51002       1210   76 77   60/ 19/ 25 1016.5
BUOY 51003       1150   76 78   50/ 12/ 14 1018.8F   8/11   8/ 40
BUOY 51004       1150      77   70/ 17/ 21 1016.9F  12/10  10/ 80
BARBERS PT BUOY  NOT AVBL
WAIMEA BAY BUOY  1202      74                N/A     6/12   3/ 10
KAILUA BAY BUOY  1204      76                N/A     9/ 9   5/ 30
LANAI BUOY       1215      77                N/A     2/14   2/220
BARBERS PT 2     1209      77                N/A     4/11   2/320
PAUWELA MAUI     1209      75                N/A    10/11   5/ 30
HILO             1142      76                N/A    11/10   7/ 60
KANEOHE BAY BUOY 1206      75                N/A     9/11   5/ 30
HANALEI KAUAI    1152      77                N/A     8/11   5/ 40
KAHULUI HARBOR   1200   72 74  340/  6/  7 1019.3
HONOLULU HARBOR  1200   72 76   CALM  /  2 1020.6
KILO NALU        NOT AVBL
HILO HARBOR      1200   69 74  240/  4/  6 1019.3
MOKUOLOE         1136   73 73  100/ 13/ 15 1020.2S
NAWILIWILI       1200   74      70/ 15/ 16 1019.9
WHOTS BUOY       NOT AVBL
BUOY 51028       NOT AVBL
$$

......................KEY........................................
  SKY/WX - SKY CONDITIONS/PRESENT WEATHER
  TMP    - TEMPERATURE IN FAHRENHEIT
  DWPT   - DEWPOINT IN FAHRENHEIT
  RH     - RELATIVE HUMIDITY IN PERCENT
  WIND   - DIRECTION AND SPEED /MPH FOR ISLANDS...KTS FOR BUOYS/
  PRES   - MEAN SEA LEVEL PRESSURE IN INCHES OF HG
  VSB    - VISIBILITY IN MILES
  HX     - HEAT INDEX
  WCI    - WIND CHILL INDEX
  VRB    - VARIABLE WIND DIRECTION
  N/A    - NOT AVAILABLE




USA.gov is the U.S. government's official web portal to all federal, state and local government web resources and services.